START_TIME,STEP,MOV.,M34,t_acc.,L5,t_acc.,L18,t_acc.,L14,t_acc.
1980-11-15 09:00:13.290 ,1,0,0.,12.0,0.,12.0,0.,12.0,0.,12.0
1980-11-15 09:00:25.290 ,1,0,0.,12.0,0.,12.0,0.,12.0,0.,12.0
1980-11-15 09:00:13.290 ,1,0,0.,12.0,0.,12.0,0.,12.0,0.,12.0
1980-11-15 09:00:25.290 ,1,0,0.,12.0,0.,12.0,0.,12.0,0.,12.0
1980-11-15 09:00:37.290 ,0,1,0.,12.0,0.,12.0,0.,12.0,0.,12.0
1980-11-15 09:00:49.290 ,0,1,0.,12.0,0.,12.0,0.,12.0,0.,12.0
1980-11-15 09:01:01.290 ,0,0,0.,12.0,0.,12.0,0.,12.0,0.,12.0
1980-11-15 09:01:13.290 ,0,0,0.,12.0,0.,12.0,0.,12.0,0.,12.0
1980-11-15 09:01:25.290 ,0,1,0.,12.0,0.,12.0,0.,12.0,0.,12.0
1980-11-15 09:01:37.290 ,0,1,0.,12.0,0.,12.0,0.,12.0,0.,12.0
1980-11-15 09:01:49.290 ,0,0,0.,12.0,0.,12.0,0.,12.0,0.,12.0
1980-11-15 09:02:01.290 ,0,0,0.,12.0,0.,12.0,0.,12.0,0.,12.0
1980-11-15 09:02:13.290 ,1,1,0.,12.0,0.,12.0,0.,12.0,0.,12.0
1980-11-15 09:02:25.290 ,1,1,0.,12.0,0.,12.0,0.,12.0,0.,12.0
1980-11-15 09:02:37.290 ,1,0,0.,12.0,0.,12.0,0.,12.0,0.,12.0
1980-11-15 09:02:49.290 ,1,0,0.,12.0,0.,12.0,0.,12.0,0.,12.0
1980-11-15 09:03:01.290 ,2,1,0.,12.0,0.,12.0,0.,12.0,0.,12.0
1980-11-15 09:03:13.290 ,2,1,0.,12.0,0.,12.0,0.,12.0,0.,12.0
1980-11-15 09:03:25.290 ,2,0,0.,12.0,0.,12.0,0.,12.0,0.,12.0
1980-11-15 09:03:37.290 ,2,0,0.,12.0,0.,12.0,0.,12.0,0.,12.0
1980-11-15 09:03:49.290 ,3,1,0.,12.0,0.,12.0,0.,12.0,0.,12.0
1980-11-15 09:04:01.290 ,3,1,0.,12.0,0.,12.0,0.,12.0,0.,12.0
1980-11-15 09:04:13.290 ,3,0,0.,12.0,0.,12.0,0.,12.0,0.,12.0
1980-11-15 09:04:25.290 ,3,0,0.,12.0,0.,12.0,0.,12.0,0.,12.0
1980-11-15 09:04:37.290 ,4,1,0.,12.0,0.,12.0,0.,12.0,0.,12.0
1980-11-15 09:04:49.290 ,4,1,0.,12.0,0.,12.0,0.,12.0,0.,12.0
1980-11-15 09:05:01.290 ,4,0,0.,12.0,0.,12.0,0.,12.0,0.,12.0
1980-11-15 09:05:13.290 ,4,0,0.,12.0,0.,12.0,0.,12.0,0.,12.0
1980-11-15 09:05:25.290 ,5,1,0.,12.0,0.,12.0,0.,12.0,0.,12.0
1980-11-15 09:05:37.290 ,5,1,0.,12.0,0.,12.0,0.,12.0,0.,12.0
1980-11-15 09:05:49.290 ,5,0,0.,12.0,0.,12.0,0.,12.0,0.,12.0
1980-11-15 09:06:01.290 ,5,0,0.,12.0,0.,12.0,0.,12.0,0.,12.0
1980-11-15 09:06:13.290 ,6,1,0.,12.0,0.,12.0,0.,12.0,0.,12.0
1980-11-15 09:06:25.290 ,6,1,0.,12.0,0.,12.0,0.,12.0,0.,12.0
1980-11-15 09:06:37.290 ,6,0,0.,12.0,0.,12.0,0.,12.0,0.,12.0
1980-11-15 09:06:49.290 ,6,0,0.,12.0,0.,12.0,0.,12.0,0.,12.0
1980-11-15 09:07:01.290 ,7,1,0.,12.0,0.,12.0,0.,12.0,0.,12.0
1980-11-15 09:07:13.290 ,7,1,0.,12.0,3.,12.0,0.,12.0,0.,12.0
1980-11-15 09:07:25.290 ,7,0,0.,12.0,3.,12.0,0.,12.0,0.,12.0
1980-11-15 09:07:37.290 ,7,0,0.,12.0,6.,12.0,0.,12.0,0.,12.0
1980-11-15 09:07:49.290 ,7,1,0.,12.0,5.,12.0,0.,12.0,0.,12.0
1980-11-15 09:08:01.290 ,7,1,0.,12.0,8.,12.0,0.,12.0,0.,12.0
1980-11-15 09:08:13.290 ,7,0,0.,12.0,4.,12.0,0.,12.0,0.,12.0
1980-11-15 09:08:25.290 ,7,0,0.,12.0,0.,12.0,0.,12.0,0.,12.0
1980-11-15 09:08:37.290 ,6,1,0.,12.0,7.,12.0,0.,12.0,0.,12.0
1980-11-15 09:08:49.290 ,6,1,0.,12.0,1.,12.0,0.,12.0,0.,12.0
1980-11-15 09:09:01.290 ,6,0,0.,12.0,0.,12.0,0.,12.0,0.,12.0
1980-11-15 09:09:13.290 ,6,0,0.,12.0,0.,12.0,0.,12.0,0.,12.0
1980-11-15 09:09:25.290 ,5,1,0.,12.0,0.,12.0,0.,12.0,0.,12.0
1980-11-15 09:09:37.290 ,5,1,0.,12.0,0.,12.0,0.,12.0,0.,12.0
1980-11-15 09:09:49.290 ,5,0,0.,12.0,0.,12.0,0.,12.0,0.,12.0
1980-11-15 09:10:01.290 ,5,0,0.,12.0,0.,12.0,0.,12.0,0.,12.0
1980-11-15 09:10:13.290 ,4,1,0.,12.0,0.,12.0,0.,12.0,0.,12.0
1980-11-15 09:10:25.290 ,4,1,0.,12.0,0.,12.0,0.,12.0,0.,12.0
1980-11-15 09:10:37.290 ,4,0,0.,12.0,0.,12.0,0.,12.0,0.,12.0
1980-11-15 09:10:49.290 ,4,0,0.,12.0,0.,12.0,0.,12.0,0.,12.0
1980-11-15 09:11:01.290 ,3,1,0.,12.0,0.,12.0,0.,12.0,0.,12.0
1980-11-15 09:11:13.290 ,3,1,0.,12.0,0.,12.0,0.,12.0,0.,12.0
1980-11-15 09:11:25.290 ,3,0,0.,12.0,0.,12.0,0.,12.0,0.,12.0
1980-11-15 09:11:37.290 ,3,0,0.,12.0,0.,12.0,0.,12.0,0.,12.0
1980-11-15 09:11:49.290 ,2,1,0.,12.0,0.,12.0,0.,12.0,0.,12.0
1980-11-15 09:12:01.290 ,2,1,0.,12.0,0.,12.0,0.,12.0,0.,12.0
1980-11-15 09:12:13.290 ,2,0,0.,12.0,0.,12.0,0.,12.0,0.,12.0
1980-11-15 09:12:25.290 ,2,0,0.,12.0,0.,12.0,0.,12.0,0.,12.0
1980-11-15 09:12:37.290 ,1,1,0.,12.0,0.,12.0,0.,12.0,0.,12.0
1980-11-15 09:12:49.290 ,1,1,0.,12.0,0.,12.0,0.,12.0,0.,12.0
1980-11-15 09:13:01.290 ,1,0,0.,12.0,0.,12.0,0.,12.0,0.,12.0
1980-11-15 09:13:13.290 ,1,0,0.,12.0,0.,12.0,0.,12.0,0.,12.0
1980-11-15 09:13:25.290 ,0,1,0.,12.0,0.,12.0,0.,12.0,0.,12.0
1980-11-15 09:13:37.290 ,0,1,0.,12.0,0.,12.0,0.,12.0,0.,12.0
1980-11-15 09:13:49.290 ,0,0,0.,12.0,0.,12.0,0.,12.0,0.,12.0
1980-11-15 09:14:01.290 ,0,0,0.,12.0,0.,12.0,0.,12.0,0.,12.0
1980-11-15 09:14:13.290 ,0,1,0.,12.0,0.,12.0,0.,12.0,0.,12.0
1980-11-15 09:14:25.290 ,0,1,0.,12.0,0.,12.0,0.,12.0,0.,12.0
1980-11-15 09:14:37.290 ,0,0,0.,12.0,0.,12.0,0.,12.0,0.,12.0
1980-11-15 09:14:49.290 ,0,0,0.,12.0,0.,12.0,0.,12.0,0.,12.0
1980-11-15 09:15:01.290 ,1,1,0.,12.0,0.,12.0,0.,12.0,0.,12.0
1980-11-15 09:15:13.290 ,1,1,0.,12.0,0.,12.0,0.,12.0,0.,12.0
1980-11-15 09:15:25.290 ,1,0,0.,12.0,0.,12.0,0.,12.0,0.,12.0
1980-11-15 09:15:37.290 ,1,0,0.,12.0,0.,12.0,0.,12.0,0.,12.0
1980-11-15 09:15:49.290 ,2,1,0.,12.0,0.,12.0,0.,12.0,0.,12.0
1980-11-15 09:16:01.290 ,2,1,0.,12.0,0.,12.0,0.,12.0,0.,12.0
1980-11-15 09:16:13.290 ,2,0,0.,12.0,0.,12.0,0.,12.0,0.,12.0
1980-11-15 09:16:25.290 ,2,0,0.,12.0,0.,12.0,0.,12.0,0.,12.0
1980-11-15 09:16:37.290 ,3,1,0.,12.0,0.,12.0,0.,12.0,0.,12.0
1980-11-15 09:16:49.290 ,3,1,0.,12.0,0.,12.0,0.,12.0,0.,12.0
1980-11-15 09:17:01.290 ,3,0,0.,12.0,0.,12.0,0.,12.0,0.,12.0
1980-11-15 09:17:13.290 ,3,0,0.,12.0,0.,12.0,0.,12.0,0.,12.0
1980-11-15 09:17:25.290 ,4,1,0.,12.0,0.,12.0,0.,12.0,0.,12.0
1980-11-15 09:17:37.290 ,4,1,0.,12.0,0.,12.0,0.,12.0,0.,12.0
1980-11-15 09:17:49.290 ,4,0,0.,12.0,0.,12.0,0.,12.0,0.,12.0
1980-11-15 09:18:01.290 ,4,0,0.,12.0,0.,12.0,0.,12.0,0.,12.0
1980-11-15 09:18:13.290 ,5,1,0.,12.0,0.,12.0,0.,12.0,0.,12.0
1980-11-15 09:18:25.290 ,5,1,0.,12.0,0.,12.0,0.,12.0,0.,12.0
1980-11-15 09:18:37.290 ,5,0,0.,12.0,0.,12.0,0.,12.0,0.,12.0
1980-11-15 09:18:49.290 ,5,0,0.,12.0,0.,12.0,0.,12.0,0.,12.0
1980-11-15 09:19:01.290 ,6,1,0.,12.0,0.,12.0,0.,12.0,0.,12.0
1980-11-15 09:19:13.290 ,6,1,0.,12.0,0.,12.0,0.,12.0,0.,12.0
1980-11-15 09:19:25.290 ,6,0,0.,12.0,0.,12.0,0.,12.0,0.,12.0
1980-11-15 09:19:37.290 ,6,0,0.,12.0,0.,12.0,0.,12.0,0.,12.0
1980-11-15 09:19:49.290 ,7,1,0.,12.0,0.,12.0,0.,12.0,0.,12.0
1980-11-15 09:20:01.290 ,7,1,0.,12.0,3.,12.0,0.,12.0,0.,12.0
1980-11-15 09:20:13.290 ,7,0,0.,12.0,6.,12.0,0.,12.0,0.,12.0
1980-11-15 09:20:25.290 ,7,0,0.,12.0,5.,12.0,0.,12.0,0.,12.0
1980-11-15 09:20:37.290 ,7,1,0.,12.0,6.,12.0,0.,12.0,0.,12.0
1980-11-15 09:20:49.290 ,7,1,0.,12.0,2.,12.0,0.,12.0,0.,12.0
1980-11-15 09:21:01.290 ,7,0,0.,12.0,2.,12.0,0.,12.0,0.,12.0
1980-11-15 09:21:13.290 ,7,0,0.,12.0,9.,12.0,0.,12.0,0.,12.0
1980-11-15 09:21:25.290 ,6,1,0.,12.0,2.,12.0,0.,12.0,0.,12.0
1980-11-15 09:21:37.290 ,6,1,0.,12.0,1.,12.0,0.,12.0,0.,12.0
1980-11-15 09:21:49.290 ,6,0,0.,12.0,0.,12.0,0.,12.0,0.,12.0
1980-11-15 09:22:01.290 ,6,0,0.,12.0,0.,12.0,0.,12.0,0.,12.0
1980-11-15 09:22:13.290 ,5,1,0.,12.0,0.,12.0,0.,12.0,0.,12.0
1980-11-15 09:22:25.290 ,5,1,0.,12.0,0.,12.0,0.,12.0,0.,12.0
1980-11-15 09:22:37.290 ,5,0,0.,12.0,0.,12.0,0.,12.0,0.,12.0
1980-11-15 09:22:49.290 ,5,0,0.,12.0,0.,12.0,0.,12.0,0.,12.0
1980-11-15 09:23:01.290 ,4,1,0.,12.0,0.,12.0,0.,12.0,0.,12.0
1980-11-15 09:23:13.290 ,4,1,0.,12.0,0.,12.0,0.,12.0,0.,12.0
1980-11-15 09:23:25.290 ,4,0,0.,12.0,0.,12.0,0.,12.0,0.,12.0
1980-11-15 09:23:37.290 ,4,0,0.,12.0,0.,12.0,0.,12.0,0.,12.0
1980-11-15 09:23:49.290 ,3,1,0.,12.0,0.,12.0,0.,12.0,0.,12.0
1980-11-15 09:24:01.290 ,3,1,0.,12.0,0.,12.0,0.,12.0,0.,12.0
1980-11-15 09:24:13.290 ,3,0,0.,12.0,0.,12.0,0.,12.0,0.,12.0
1980-11-15 09:24:25.290 ,3,0,0.,12.0,0.,12.0,0.,12.0,0.,12.0
1980-11-15 09:24:37.290 ,2,1,0.,12.0,0.,12.0,0.,12.0,0.,12.0
1980-11-15 09:24:49.290 ,2,1,0.,12.0,0.,12.0,0.,12.0,0.,12.0
1980-11-15 09:25:01.290 ,2,0,0.,12.0,0.,12.0,0.,12.0,0.,12.0
1980-11-15 09:25:13.290 ,2,0,0.,12.0,0.,12.0,0.,12.0,0.,12.0
1980-11-15 09:25:25.290 ,1,1,0.,12.0,0.,12.0,0.,12.0,0.,12.0
1980-11-15 09:25:37.290 ,1,1,0.,12.0,0.,12.0,0.,12.0,0.,12.0
1980-11-15 09:25:49.290 ,1,0,0.,12.0,0.,12.0,0.,12.0,0.,12.0
1980-11-15 09:26:01.290 ,1,0,0.,12.0,0.,12.0,0.,12.0,0.,12.0
1980-11-15 09:26:13.290 ,0,1,0.,12.0,0.,12.0,0.,12.0,0.,12.0
1980-11-15 09:26:25.290 ,0,1,0.,12.0,0.,12.0,0.,12.0,0.,12.0
1980-11-15 09:26:37.290 ,0,0,0.,12.0,0.,12.0,0.,12.0,0.,12.0
1980-11-15 09:26:49.290 ,0,0,0.,12.0,0.,12.0,0.,12.0,0.,12.0
1980-11-15 09:27:01.290 ,0,1,0.,12.0,0.,12.0,0.,12.0,0.,12.0
1980-11-15 09:27:13.290 ,0,1,0.,12.0,0.,12.0,0.,12.0,0.,12.0
1980-11-15 09:27:25.290 ,0,0,0.,12.0,0.,12.0,0.,12.0,0.,12.0
1980-11-15 09:27:37.290 ,0,0,0.,12.0,0.,12.0,0.,12.0,0.,12.0
1980-11-15 09:27:49.290 ,1,1,0.,12.0,0.,12.0,0.,12.0,0.,12.0
1980-11-15 09:28:01.290 ,1,1,0.,12.0,0.,12.0,0.,12.0,0.,12.0
1980-11-15 09:28:13.290 ,1,0,0.,12.0,0.,12.0,0.,12.0,0.,12.0
1980-11-15 09:28:25.290 ,1,0,0.,12.0,0.,12.0,0.,12.0,0.,12.0
1980-11-15 09:28:37.290 ,2,1,0.,12.0,0.,12.0,0.,12.0,0.,12.0
1980-11-15 09:28:49.290 ,2,1,0.,12.0,0.,12.0,0.,12.0,0.,12.0
1980-11-15 09:29:01.290 ,2,0,0.,12.0,0.,12.0,0.,12.0,0.,12.0
1980-11-15 09:29:13.290 ,2,0,0.,12.0,0.,12.0,0.,12.0,0.,12.0
1980-11-15 09:29:25.290 ,3,1,0.,12.0,0.,12.0,0.,12.0,0.,12.0
1980-11-15 09:29:37.290 ,3,1,0.,12.0,0.,12.0,0.,12.0,0.,12.0
1980-11-15 09:29:49.290 ,3,0,0.,12.0,0.,12.0,0.,12.0,0.,12.0
1980-11-15 09:30:01.290 ,3,0,0.,12.0,0.,12.0,0.,12.0,0.,12.0
1980-11-15 09:30:13.290 ,4,1,0.,12.0,0.,12.0,0.,12.0,0.,12.0
1980-11-15 09:30:25.290 ,4,1,0.,12.0,0.,12.0,0.,12.0,0.,12.0
1980-11-15 09:30:37.290 ,4,0,0.,12.0,0.,12.0,0.,12.0,0.,12.0
1980-11-15 09:30:49.290 ,4,0,0.,12.0,0.,12.0,0.,12.0,0.,12.0
1980-11-15 09:31:01.290 ,5,1,0.,12.0,0.,12.0,0.,12.0,0.,12.0
1980-11-15 09:31:13.290 ,5,1,0.,12.0,0.,12.0,0.,12.0,0.,12.0
1980-11-15 09:31:25.290 ,5,0,0.,12.0,0.,12.0,0.,12.0,0.,12.0
1980-11-15 09:31:37.290 ,5,0,0.,12.0,0.,12.0,0.,12.0,0.,12.0
1980-11-15 09:31:49.290 ,6,1,0.,12.0,0.,12.0,0.,12.0,0.,12.0
1980-11-15 09:32:01.290 ,6,1,0.,12.0,0.,12.0,0.,12.0,0.,12.0
1980-11-15 09:32:13.290 ,6,0,0.,12.0,0.,12.0,0.,12.0,0.,12.0
1980-11-15 09:32:25.290 ,6,0,0.,12.0,0.,12.0,0.,12.0,0.,12.0
1980-11-15 09:32:37.290 ,7,1,0.,12.0,0.,12.0,0.,12.0,0.,12.0
1980-11-15 09:32:49.290 ,7,1,0.,12.0,2.,12.0,0.,12.0,0.,12.0
1980-11-15 09:33:01.290 ,7,0,0.,12.0,5.,12.0,0.,12.0,0.,12.0
1980-11-15 09:33:13.290 ,7,0,0.,12.0,3.,12.0,0.,12.0,0.,12.0
1980-11-15 09:33:25.290 ,7,1,0.,12.0,2.,12.0,0.,12.0,0.,12.0
1980-11-15 09:33:37.290 ,7,1,0.,12.0,2.,12.0,0.,12.0,0.,12.0
1980-11-15 09:33:49.290 ,7,0,0.,12.0,0.,12.0,0.,12.0,0.,12.0
1980-11-15 09:34:01.290 ,7,0,0.,12.0,4.,12.0,0.,12.0,0.,12.0
1980-11-15 09:34:13.290 ,6,1,0.,12.0,8.,12.0,0.,12.0,0.,12.0
1980-11-15 09:34:25.290 ,6,1,0.,12.0,1.,12.0,0.,12.0,0.,12.0
1980-11-15 09:34:37.290 ,6,0,0.,12.0,0.,12.0,0.,12.0,0.,12.0
1980-11-15 09:34:49.290 ,6,0,0.,12.0,0.,12.0,0.,12.0,0.,12.0
1980-11-15 09:35:01.290 ,5,1,0.,12.0,0.,12.0,0.,12.0,0.,12.0
1980-11-15 09:35:13.290 ,5,1,0.,12.0,0.,12.0,0.,12.0,0.,12.0
1980-11-15 09:35:25.290 ,0,0,0.,12.0,0.,12.0,0.,12.0,0.,12.0
1980-11-15 09:35:37.290 ,0,0,0.,12.0,0.,12.0,0.,12.0,0.,12.0
1980-11-15 09:43:00.690 ,0,0,,0,,0,,0,,0
1980-11-15 09:43:12.690 ,0,0,,0,,0,,0,,0
1980-11-15 09:43:01.290 ,0,0,0.,12.0,0.,12.0,0.,12.0,0.,12.0
1980-11-15 09:43:13.290 ,0,0,0.,12.0,0.,12.0,0.,12.0,0.,12.0
1980-11-15 09:43:25.290 ,0,0,0.,12.0,0.,12.0,0.,12.0,0.,12.0
1980-11-15 09:43:37.290 ,0,0,0.,12.0,0.,12.0,0.,12.0,0.,12.0
1980-11-15 09:43:49.290 ,5,1,0.,12.0,0.,12.0,0.,12.0,0.,12.0
1980-11-15 09:44:01.290 ,5,1,0.,12.0,0.,12.0,0.,12.0,0.,12.0
1980-11-15 09:44:13.290 ,5,0,0.,12.0,0.,12.0,0.,12.0,0.,12.0
1980-11-15 09:44:25.290 ,5,0,0.,12.0,0.,12.0,0.,12.0,0.,12.0
1980-11-15 09:44:37.290 ,6,1,0.,12.0,0.,12.0,0.,12.0,0.,12.0
1980-11-15 09:44:49.290 ,6,1,0.,12.0,0.,12.0,0.,12.0,0.,12.0
1980-11-15 09:45:01.290 ,6,0,0.,12.0,0.,12.0,0.,12.0,0.,12.0
1980-11-15 09:45:13.290 ,6,0,0.,12.0,0.,12.0,0.,12.0,0.,12.0
1980-11-15 09:45:25.290 ,7,1,0.,12.0,0.,12.0,0.,12.0,0.,12.0
1980-11-15 09:45:37.290 ,7,1,0.,12.0,0.,12.0,0.,12.0,0.,12.0
1980-11-15 09:45:49.290 ,7,0,0.,12.0,2.,12.0,0.,12.0,0.,12.0
1980-11-15 09:46:01.290 ,7,0,0.,12.0,0.,12.0,0.,12.0,0.,12.0
1980-11-15 09:46:13.290 ,7,1,0.,12.0,6.,12.0,0.,12.0,0.,12.0
1980-11-15 09:46:25.290 ,7,1,0.,12.0,4.,12.0,0.,12.0,0.,12.0
1980-11-15 09:46:37.290 ,7,0,0.,12.0,0.,12.0,0.,12.0,0.,12.0
1980-11-15 09:46:49.290 ,7,0,0.,12.0,4.,12.0,0.,12.0,0.,12.0
1980-11-15 09:47:01.290 ,6,1,0.,12.0,1.,12.0,0.,12.0,0.,12.0
1980-11-15 09:47:13.290 ,6,1,0.,12.0,4.,12.0,0.,12.0,0.,12.0
1980-11-15 09:47:25.290 ,6,0,0.,12.0,0.,12.0,0.,12.0,0.,12.0
1980-11-15 09:47:37.290 ,6,0,0.,12.0,0.,12.0,0.,12.0,0.,12.0
1980-11-15 09:47:49.290 ,5,1,0.,12.0,0.,12.0,0.,12.0,0.,12.0
1980-11-15 09:48:01.290 ,5,1,0.,12.0,0.,12.0,0.,12.0,0.,12.0
1980-11-15 09:48:13.290 ,5,0,0.,12.0,0.,12.0,0.,12.0,0.,12.0
1980-11-15 09:48:25.290 ,5,0,0.,12.0,0.,12.0,0.,12.0,0.,12.0
1980-11-15 09:48:37.290 ,4,1,0.,12.0,0.,12.0,0.,12.0,0.,12.0
1980-11-15 09:48:49.290 ,4,1,0.,12.0,0.,12.0,0.,12.0,0.,12.0
1980-11-15 09:49:01.290 ,4,0,0.,12.0,0.,12.0,0.,12.0,0.,12.0
1980-11-15 09:49:13.290 ,4,0,0.,12.0,0.,12.0,0.,12.0,0.,12.0
1980-11-15 09:49:25.290 ,3,1,0.,12.0,0.,12.0,0.,12.0,0.,12.0
1980-11-15 09:49:37.290 ,3,1,0.,12.0,0.,12.0,0.,12.0,0.,12.0
1980-11-15 09:49:49.290 ,3,0,0.,12.0,0.,12.0,0.,12.0,0.,12.0
1980-11-15 09:50:01.290 ,3,0,0.,12.0,0.,12.0,0.,12.0,0.,12.0
1980-11-15 09:50:13.290 ,2,1,0.,12.0,0.,12.0,0.,12.0,0.,12.0
1980-11-15 09:50:25.290 ,2,1,0.,12.0,0.,12.0,0.,12.0,0.,12.0
1980-11-15 09:50:37.290 ,2,0,0.,12.0,0.,12.0,0.,12.0,0.,12.0
1980-11-15 09:50:49.290 ,2,0,0.,12.0,0.,12.0,0.,12.0,0.,12.0
1980-11-15 09:51:01.290 ,1,1,0.,12.0,0.,12.0,0.,12.0,0.,12.0
1980-11-15 09:51:13.290 ,1,1,0.,12.0,0.,12.0,0.,12.0,0.,12.0
1980-11-15 09:51:25.290 ,1,0,0.,12.0,0.,12.0,0.,12.0,0.,12.0
1980-11-15 09:51:37.290 ,1,0,0.,12.0,0.,12.0,0.,12.0,0.,12.0
1980-11-15 09:51:49.290 ,0,1,0.,12.0,0.,12.0,0.,12.0,0.,12.0
1980-11-15 09:52:01.290 ,0,1,0.,12.0,0.,12.0,0.,12.0,0.,12.0
1980-11-15 09:52:13.290 ,0,0,0.,12.0,0.,12.0,0.,12.0,0.,12.0
1980-11-15 09:52:25.290 ,0,0,0.,12.0,0.,12.0,0.,12.0,0.,12.0
1980-11-15 09:52:37.290 ,0,1,0.,12.0,0.,12.0,0.,12.0,0.,12.0
1980-11-15 09:52:49.290 ,0,1,0.,12.0,0.,12.0,0.,12.0,0.,12.0
1980-11-15 09:53:01.290 ,0,0,0.,12.0,0.,12.0,0.,12.0,0.,12.0
1980-11-15 09:53:13.290 ,0,0,0.,12.0,0.,12.0,0.,12.0,0.,12.0
1980-11-15 09:53:25.290 ,1,1,0.,12.0,0.,12.0,0.,12.0,0.,12.0
1980-11-15 09:53:37.290 ,1,1,0.,12.0,0.,12.0,0.,12.0,0.,12.0
1980-11-15 09:53:49.290 ,1,0,0.,12.0,0.,12.0,0.,12.0,0.,12.0
1980-11-15 09:54:01.290 ,1,0,0.,12.0,0.,12.0,0.,12.0,0.,12.0
1980-11-15 09:54:13.290 ,2,1,0.,12.0,0.,12.0,0.,12.0,0.,12.0
1980-11-15 09:54:25.290 ,2,1,0.,12.0,0.,12.0,0.,12.0,0.,12.0
1980-11-15 09:54:37.290 ,2,0,0.,12.0,0.,12.0,0.,12.0,0.,12.0
1980-11-15 09:54:49.290 ,2,0,0.,12.0,0.,12.0,0.,12.0,0.,12.0
1980-11-15 09:55:01.290 ,3,1,0.,12.0,0.,12.0,0.,12.0,0.,12.0
1980-11-15 09:55:13.290 ,3,1,0.,12.0,0.,12.0,0.,12.0,0.,12.0
1980-11-15 09:55:25.290 ,3,0,0.,12.0,0.,12.0,0.,12.0,0.,12.0
1980-11-15 09:55:37.290 ,3,0,0.,12.0,0.,12.0,0.,12.0,0.,12.0
1980-11-15 09:55:49.290 ,4,1,0.,12.0,0.,12.0,0.,12.0,0.,12.0
1980-11-15 09:56:01.290 ,4,1,0.,12.0,0.,12.0,0.,12.0,0.,12.0
1980-11-15 09:56:13.290 ,4,0,0.,12.0,0.,12.0,0.,12.0,0.,12.0
1980-11-15 09:56:25.290 ,4,0,0.,12.0,0.,12.0,0.,12.0,0.,12.0
1980-11-15 09:56:37.290 ,5,1,0.,12.0,0.,12.0,0.,12.0,0.,12.0
1980-11-15 09:56:49.290 ,5,1,0.,12.0,0.,12.0,0.,12.0,0.,12.0
1980-11-15 09:57:01.290 ,5,0,0.,12.0,0.,12.0,0.,12.0,0.,12.0
1980-11-15 09:57:13.290 ,5,0,0.,12.0,0.,12.0,0.,12.0,0.,12.0
1980-11-15 09:57:25.290 ,6,1,0.,12.0,0.,12.0,0.,12.0,0.,12.0
1980-11-15 09:57:37.290 ,6,1,0.,12.0,0.,12.0,0.,12.0,0.,12.0
1980-11-15 09:57:49.290 ,6,0,0.,12.0,0.,12.0,0.,12.0,0.,12.0
1980-11-15 09:58:01.290 ,6,0,0.,12.0,0.,12.0,0.,12.0,0.,12.0
1980-11-15 09:58:13.290 ,7,1,0.,12.0,0.,12.0,0.,12.0,0.,12.0
1980-11-15 09:58:25.290 ,7,1,0.,12.0,2.,12.0,0.,12.0,0.,12.0
1980-11-15 09:58:37.290 ,7,0,0.,12.0,4.,12.0,0.,12.0,0.,12.0
1980-11-15 09:58:49.290 ,7,0,0.,12.0,1.,12.0,0.,12.0,0.,12.0
1980-11-15 09:59:01.290 ,7,1,0.,12.0,3.,12.0,0.,12.0,0.,12.0
1980-11-15 09:59:13.290 ,7,1,0.,12.0,6.,12.0,0.,12.0,0.,12.0
1980-11-15 09:59:25.290 ,7,0,0.,12.0,5.,12.0,0.,12.0,0.,12.0
1980-11-15 09:59:37.290 ,7,0,0.,12.0,1.,12.0,0.,12.0,0.,12.0
1980-11-15 09:59:49.290 ,6,1,0.,12.0,6.,12.0,0.,12.0,0.,12.0
1980-11-15 10:00:01.290 ,6,1,0.,12.0,2.,12.0,0.,12.0,0.,12.0
1980-11-15 10:00:13.290 ,6,0,0.,12.0,0.,12.0,0.,12.0,0.,12.0
1980-11-15 10:00:25.290 ,6,0,0.,12.0,0.,12.0,0.,12.0,0.,12.0
1980-11-15 10:00:37.290 ,5,1,0.,12.0,0.,12.0,0.,12.0,0.,12.0
1980-11-15 10:00:49.290 ,5,1,0.,12.0,0.,12.0,0.,12.0,0.,12.0
1980-11-15 10:01:01.290 ,5,0,0.,12.0,0.,12.0,0.,12.0,0.,12.0
1980-11-15 10:01:13.290 ,5,0,0.,12.0,0.,12.0,0.,12.0,0.,12.0
1980-11-15 10:01:25.290 ,4,1,0.,12.0,0.,12.0,0.,12.0,0.,12.0
1980-11-15 10:01:37.290 ,4,1,0.,12.0,0.,12.0,0.,12.0,0.,12.0
1980-11-15 10:01:49.290 ,4,0,0.,12.0,0.,12.0,0.,12.0,0.,12.0
1980-11-15 10:02:01.290 ,4,0,0.,12.0,0.,12.0,0.,12.0,0.,12.0
1980-11-15 10:02:13.290 ,3,1,0.,12.0,0.,12.0,0.,12.0,0.,12.0
1980-11-15 10:02:25.290 ,3,1,0.,12.0,0.,12.0,0.,12.0,0.,12.0
1980-11-15 10:02:37.290 ,3,0,0.,12.0,0.,12.0,0.,12.0,0.,12.0
1980-11-15 10:02:49.290 ,3,0,0.,12.0,0.,12.0,0.,12.0,0.,12.0
1980-11-15 10:03:01.290 ,2,1,0.,12.0,0.,12.0,0.,12.0,0.,12.0
1980-11-15 10:03:13.290 ,2,1,0.,12.0,0.,12.0,0.,12.0,0.,12.0
1980-11-15 10:03:25.290 ,2,0,0.,12.0,0.,12.0,0.,12.0,0.,12.0
1980-11-15 10:03:37.290 ,2,0,0.,12.0,0.,12.0,0.,12.0,0.,12.0
1980-11-15 10:03:49.290 ,1,1,0.,12.0,0.,12.0,0.,12.0,0.,12.0
1980-11-15 10:04:01.290 ,1,1,0.,12.0,0.,12.0,0.,12.0,0.,12.0
1980-11-15 10:04:13.290 ,1,0,0.,12.0,0.,12.0,0.,12.0,0.,12.0
1980-11-15 10:04:25.290 ,1,0,0.,12.0,0.,12.0,0.,12.0,0.,12.0
1980-11-15 10:04:37.290 ,0,1,0.,12.0,0.,12.0,0.,12.0,0.,12.0
1980-11-15 10:04:49.290 ,0,1,0.,12.0,0.,12.0,0.,12.0,0.,12.0
1980-11-15 10:05:01.290 ,0,0,0.,12.0,0.,12.0,0.,12.0,0.,12.0
1980-11-15 10:05:13.290 ,0,0,0.,12.0,0.,12.0,0.,12.0,0.,12.0
1980-11-15 10:05:25.290 ,0,1,0.,12.0,0.,12.0,0.,12.0,0.,12.0
1980-11-15 10:05:37.290 ,0,1,0.,12.0,0.,12.0,0.,12.0,1.,12.0
1980-11-15 10:05:49.290 ,0,0,0.,12.0,0.,12.0,0.,12.0,0.,12.0
1980-11-15 10:06:01.290 ,0,0,0.,12.0,0.,12.0,0.,12.0,0.,12.0
1980-11-15 10:06:13.290 ,1,1,0.,12.0,0.,12.0,0.,12.0,0.,12.0
1980-11-15 10:06:25.290 ,1,1,0.,12.0,0.,12.0,0.,12.0,0.,12.0
1980-11-15 10:06:37.290 ,1,0,0.,12.0,0.,12.0,0.,12.0,0.,12.0
1980-11-15 10:06:49.290 ,1,0,0.,12.0,0.,12.0,0.,12.0,0.,12.0
1980-11-15 10:07:01.290 ,2,1,0.,12.0,0.,12.0,0.,12.0,0.,12.0
1980-11-15 10:07:13.290 ,2,1,0.,12.0,0.,12.0,0.,12.0,0.,12.0
1980-11-15 10:07:25.290 ,2,0,0.,12.0,0.,12.0,0.,12.0,0.,12.0
1980-11-15 10:07:37.290 ,2,0,0.,12.0,0.,12.0,0.,12.0,0.,12.0
1980-11-15 10:07:49.290 ,3,1,0.,12.0,0.,12.0,0.,12.0,0.,12.0
1980-11-15 10:08:01.290 ,3,1,0.,12.0,0.,12.0,0.,12.0,0.,12.0
1980-11-15 10:08:13.290 ,3,0,0.,12.0,0.,12.0,0.,12.0,0.,12.0
1980-11-15 10:08:25.290 ,3,0,0.,12.0,0.,12.0,0.,12.0,0.,12.0
1980-11-15 10:08:37.290 ,4,1,0.,12.0,0.,12.0,0.,12.0,0.,12.0
1980-11-15 10:08:49.290 ,4,1,0.,12.0,0.,12.0,0.,12.0,0.,12.0
1980-11-15 10:09:01.290 ,4,0,0.,12.0,0.,12.0,0.,12.0,0.,12.0
1980-11-15 10:09:13.290 ,4,0,0.,12.0,0.,12.0,0.,12.0,0.,12.0
1980-11-15 10:09:25.290 ,5,1,0.,12.0,0.,12.0,0.,12.0,0.,12.0
1980-11-15 10:09:37.290 ,5,1,0.,12.0,0.,12.0,0.,12.0,0.,12.0
1980-11-15 10:09:49.290 ,5,0,0.,12.0,0.,12.0,0.,12.0,0.,12.0
1980-11-15 10:10:01.290 ,5,0,0.,12.0,0.,12.0,0.,12.0,0.,12.0
1980-11-15 10:10:13.290 ,6,1,0.,12.0,0.,12.0,0.,12.0,0.,12.0
1980-11-15 10:10:25.290 ,6,1,0.,12.0,0.,12.0,0.,12.0,0.,12.0
1980-11-15 10:10:37.290 ,6,0,0.,12.0,0.,12.0,0.,12.0,0.,12.0
1980-11-15 10:10:49.290 ,6,0,0.,12.0,0.,12.0,0.,12.0,0.,12.0
1980-11-15 10:11:01.290 ,7,1,0.,12.0,0.,12.0,0.,12.0,0.,12.0
1980-11-15 10:11:13.290 ,7,1,0.,12.0,1.,12.0,0.,12.0,0.,12.0
1980-11-15 10:11:25.290 ,7,0,0.,12.0,3.,12.0,0.,12.0,0.,12.0
1980-11-15 10:11:37.290 ,7,0,0.,12.0,5.,12.0,0.,12.0,0.,12.0
1980-11-15 10:11:49.290 ,7,1,0.,12.0,6.,12.0,0.,12.0,0.,12.0
1980-11-15 10:12:01.290 ,7,1,0.,12.0,3.,12.0,0.,12.0,0.,12.0
1980-11-15 10:12:13.290 ,7,0,0.,12.0,2.,12.0,0.,12.0,0.,12.0
1980-11-15 10:12:25.290 ,7,0,0.,12.0,5.,12.0,0.,12.0,0.,12.0
1980-11-15 10:12:37.290 ,6,1,0.,12.0,5.,12.0,0.,12.0,0.,12.0
1980-11-15 10:12:49.290 ,6,1,0.,12.0,1.,12.0,0.,12.0,0.,12.0
1980-11-15 10:13:01.290 ,6,0,0.,12.0,0.,12.0,0.,12.0,0.,12.0
1980-11-15 10:13:13.290 ,6,0,0.,12.0,0.,12.0,0.,12.0,0.,12.0
1980-11-15 10:13:25.290 ,5,1,0.,12.0,0.,12.0,0.,12.0,0.,12.0
1980-11-15 10:13:37.290 ,5,1,0.,12.0,0.,12.0,0.,12.0,0.,12.0
1980-11-15 10:13:49.290 ,5,0,0.,12.0,0.,12.0,0.,12.0,0.,12.0
1980-11-15 10:14:01.290 ,5,0,0.,12.0,0.,12.0,0.,12.0,0.,12.0
1980-11-15 10:14:13.290 ,4,1,0.,12.0,0.,12.0,0.,12.0,0.,12.0
1980-11-15 10:14:25.290 ,4,1,0.,12.0,0.,12.0,0.,12.0,0.,12.0
1980-11-15 10:14:37.290 ,4,0,0.,12.0,0.,12.0,0.,12.0,0.,12.0
1980-11-15 10:14:49.290 ,4,0,0.,12.0,0.,12.0,0.,12.0,1.,12.0
1980-11-15 10:15:01.290 ,3,1,0.,12.0,0.,12.0,0.,12.0,0.,12.0
1980-11-15 10:15:13.290 ,3,1,0.,12.0,0.,12.0,0.,12.0,0.,12.0
1980-11-15 10:15:25.290 ,3,0,0.,12.0,0.,12.0,0.,12.0,0.,12.0
1980-11-15 10:15:37.290 ,3,0,0.,12.0,0.,12.0,0.,12.0,0.,12.0
1980-11-15 10:15:49.290 ,2,1,0.,12.0,0.,12.0,0.,12.0,0.,12.0
1980-11-15 10:16:01.290 ,2,1,0.,12.0,0.,12.0,0.,12.0,0.,12.0
1980-11-15 10:16:13.290 ,2,0,0.,12.0,0.,12.0,0.,12.0,0.,12.0
1980-11-15 10:16:25.290 ,2,0,0.,12.0,0.,12.0,0.,12.0,0.,12.0
1980-11-15 10:16:37.290 ,1,1,0.,12.0,0.,12.0,0.,12.0,0.,12.0
1980-11-15 10:16:49.290 ,1,1,0.,12.0,0.,12.0,0.,12.0,0.,12.0
1980-11-15 10:17:01.290 ,1,0,0.,12.0,0.,12.0,0.,12.0,0.,12.0
1980-11-15 10:17:13.290 ,1,0,0.,12.0,0.,12.0,0.,12.0,0.,12.0
1980-11-15 10:17:25.290 ,0,1,0.,12.0,0.,12.0,0.,12.0,0.,12.0
1980-11-15 10:17:37.290 ,0,1,0.,12.0,0.,12.0,0.,12.0,0.,12.0
1980-11-15 10:17:49.290 ,0,0,0.,12.0,0.,12.0,0.,12.0,0.,12.0
1980-11-15 10:18:01.290 ,0,0,0.,12.0,0.,12.0,0.,12.0,0.,12.0
1980-11-15 10:18:13.290 ,0,1,0.,12.0,0.,12.0,0.,12.0,0.,12.0
1980-11-15 10:18:25.290 ,0,1,1.,12.0,0.,12.0,0.,12.0,0.,12.0
1980-11-15 10:18:37.290 ,0,0,0.,12.0,0.,12.0,0.,12.0,0.,12.0
1980-11-15 10:18:49.290 ,0,0,0.,12.0,0.,12.0,0.,12.0,0.,12.0
1980-11-15 10:19:01.290 ,1,1,0.,12.0,0.,12.0,0.,12.0,0.,12.0
1980-11-15 10:19:13.290 ,1,1,0.,12.0,0.,12.0,0.,12.0,0.,12.0
1980-11-15 10:19:25.290 ,1,0,0.,12.0,0.,12.0,0.,12.0,0.,12.0
1980-11-15 10:19:37.290 ,1,0,0.,12.0,0.,12.0,0.,12.0,0.,12.0
1980-11-15 10:19:49.290 ,2,1,0.,12.0,0.,12.0,0.,12.0,0.,12.0
1980-11-15 10:20:01.290 ,2,1,0.,12.0,0.,12.0,0.,12.0,0.,12.0
1980-11-15 10:20:13.290 ,2,0,0.,12.0,0.,12.0,0.,12.0,0.,12.0
1980-11-15 10:20:25.290 ,2,0,0.,12.0,0.,12.0,0.,12.0,0.,12.0
1980-11-15 10:20:37.290 ,3,1,0.,12.0,0.,12.0,0.,12.0,0.,12.0
1980-11-15 10:20:49.290 ,3,1,0.,12.0,0.,12.0,0.,12.0,0.,12.0
1980-11-15 10:21:01.290 ,3,0,0.,12.0,0.,12.0,0.,12.0,0.,12.0
1980-11-15 10:21:13.290 ,3,0,0.,12.0,0.,12.0,0.,12.0,0.,12.0
1980-11-15 10:21:25.290 ,4,1,0.,12.0,0.,12.0,0.,12.0,0.,12.0
1980-11-15 10:21:37.290 ,4,1,0.,12.0,0.,12.0,0.,12.0,0.,12.0
1980-11-15 10:21:49.290 ,4,0,0.,12.0,0.,12.0,0.,12.0,0.,12.0
1980-11-15 10:22:01.290 ,4,0,0.,12.0,0.,12.0,0.,12.0,0.,12.0
1980-11-15 10:22:13.290 ,5,1,0.,12.0,0.,12.0,0.,12.0,0.,12.0
1980-11-15 10:22:25.290 ,5,1,0.,12.0,0.,12.0,0.,12.0,0.,12.0
1980-11-15 10:22:37.290 ,5,0,0.,12.0,0.,12.0,0.,12.0,0.,12.0
1980-11-15 10:22:49.290 ,5,0,0.,12.0,0.,12.0,0.,12.0,0.,12.0
1980-11-15 10:23:01.290 ,6,1,0.,12.0,0.,12.0,0.,12.0,0.,12.0
1980-11-15 10:23:13.290 ,6,1,0.,12.0,0.,12.0,0.,12.0,0.,12.0
1980-11-15 10:23:25.290 ,6,0,0.,12.0,0.,12.0,0.,12.0,0.,12.0
1980-11-15 10:23:37.290 ,6,0,0.,12.0,0.,12.0,0.,12.0,0.,12.0